MONITOR-1 (RS32S) (53374 NORAD) Tracking and Keplerian Element Data

This shows tracking and keplerian element data for the satellite.

Feedback or suggestion? Click here.




ElementValue
Catalog53374
NameMONITOR-1 (RS32S)
Epoch Orbit8017
Epoch Day13.17184362
Epoch Year2024
RAAN289.3152
Inclination97.3913
Eccentricity0.0005387
Argument of Perigee95.9499
Mean Anonmoly264.2374
Mean Motion15.65006396
Decay Rate0.00153428
L11 53374U 22096E 24013.17184362 .00153428 00000+0 15387-2 0 9991
L22 53374 97.3913 289.3152 0005387 95.9499 264.2374 15.65006396 80179



Live tracking and technical data element details for MONITOR-1 (RS32S) (NORAD 53374). MONITOR-1 (RS32S) can be tracked NOW for your location showing map with azimuth and elevation plus other details from your city location.







IsCatalogInMostPopularTable: catalog: 53374, numindb: 41
Update: records affected: 1



GetName: 53374 MONITOR-1 (RS32S)

Hit Count: updated at: Thu, 23 Jan 2025 17:24:48 GMT